Location: Del Amo
(33.8464°N, 118.2104°W)
Time: 15:01:32
(UTC+00:00)

Vanguard 1 - Visible Passes

Search period start: 13 September 2024 00:00
Search period end: 23 September 2024 00:00
Orbit: 649 x 3825 km, 34.2° (Epoch: 11 September)

Date Brightness Start Highest point End Pass type
(mag) Time Alt. Az. Time Alt. Az. Time Alt. Az.
14 Sep 10.7 02:19:17 10° W 02:23:15 29° SSW 02:27:15 10° SE visible
15 Sep 11.3 02:39:39 10° WSW 02:42:52 19° SSW 02:46:09 10° SSE visible
16 Sep 11.7 03:00:53 10° SW 03:02:27 12° SSW 03:04:03 10° SSW visible
